Weather History for Panama City Tyndall AFB, FL

Change the Weather History Date:

Monday, May 12, 2014

  Actual Average Record
Temperature  
Mean Temperature 76 °F -  
Max Temperature 83 °F 80 °F 87 °F (2003)
Min Temperature 68 °F 64 °F 55 °F (2006)
Cooling Degree Days 11    
Growing Degree Days 26 (Base 50)    
Moisture  
Dew Point 73 °F    
Average Humidity 89    
Maximum Humidity 100    
Minimum Humidity 75    
Precipitation  
Precipitation 0.00 in - - ()
Sea Level Pressure  
Sea Level Pressure 30.11 in    
Wind  
Wind Speed 7 mph (SE)    
Max Wind Speed 18 mph    
Max Gust Speed 22 mph    
Visibility 10 miles    
Events      
Averages and records for this station are not official NWS values.
T = Trace of Precipitation, MM = Missing Value Source: NWS Daily Summary

Daily Weather History Graph

Daily Weather History Graph

Search for Another Location

Airport:

Trip Planner

Search our weather history database for the weather conditions in past years. The results will help you decide how hot, cold, wet, or windy it might be!

Date:

Astronomy

May. 12, 2014 Rise Set
Actual Time 5:50 AM CDT 7:26 PM CDT
Civil Twilight 5:24 AM CDT 7:53 PM CDT
Nautical Twilight 4:53 AM CDT 8:24 PM CDT
Astronomical Twilight 4:20 AM CDT 8:57 PM CDT
Moon 5:32 PM CDT (5/12) 4:18 AM CDT (5/12)
Length of Visible Light 14h 28m
Length of Day
13h 36m
Waxing Gibbous, 95% of the Moon is Illuminated
May 12
Waxing Gibbous
May 14
Full
May 21
Last Quarter
May 28
New
Jun 5
First Quarter

Hourly Weather History & Observations

Time (CDT) Temp. Heat Index Dew Point Humidity Pressure Visibility Wind Dir Wind Speed Gust Speed Precip Events Conditions
12:58 AM 72.3 °F - 72.1 °F 99% 30.09 in 10.0 mi East 3.5 mph - N/A   Clear
1:58 AM 72.3 °F - 72.3 °F 100% 30.08 in 10.0 mi East 3.5 mph - N/A   Clear
2:28 AM 71.6 °F - 71.6 °F 100% 30.07 in 10.0 mi ESE 3.5 mph - N/A   Clear
2:38 AM 71.6 °F - 71.6 °F 100% 30.06 in 10.0 mi ESE 3.5 mph - N/A   Clear
2:58 AM 71.4 °F - 71.4 °F 100% 30.08 in 10.0 mi ESE 4.6 mph - N/A   Clear
3:58 AM 72.0 °F - 72.0 °F 100% 30.08 in 10.0 mi East 4.6 mph - N/A   Clear
4:58 AM 72.1 °F - 72.1 °F 100% 30.08 in 10.0 mi East 3.5 mph - N/A   Clear
5:58 AM 70.9 °F - 70.9 °F 100% 30.11 in 10.0 mi East 4.6 mph - N/A   Clear
6:58 AM 72.1 °F - 72.1 °F 100% 30.13 in 10.0 mi East 5.8 mph - N/A   Clear
7:58 AM 75.6 °F - 75.4 °F 99% 30.14 in 10.0 mi East 8.1 mph - N/A   Clear
8:58 AM 79.7 °F - 78.1 °F 95% 30.15 in 10.0 mi ESE 9.2 mph - N/A   Partly Cloudy
9:58 AM 82.6 °F 89.7 °F 75.2 °F 78% 30.15 in 10.0 mi SSE 13.8 mph - N/A   Clear
10:28 AM 82.4 °F 89.5 °F 75.2 °F 79% 30.15 in 10.0 mi South 12.7 mph - N/A   Mostly Cloudy
10:33 AM 82.4 °F 89.5 °F 75.2 °F 79% 30.15 in 10.0 mi South 13.8 mph - N/A   Mostly Cloudy
10:38 AM 80.6 °F 86.2 °F 75.2 °F 84% 30.15 in 10.0 mi South 13.8 mph - N/A   Mostly Cloudy
10:58 AM 82.4 °F 89.0 °F 74.7 °F 77% 30.17 in 10.0 mi South 10.4 mph - N/A   Mostly Cloudy
11:58 AM 82.8 °F 89.5 °F 74.7 °F 76% 30.17 in 10.0 mi South 11.5 mph - N/A   Mostly Cloudy
12:58 PM 82.9 °F 89.7 °F 74.3 °F 75% 30.16 in 10.0 mi South 11.5 mph - N/A   Mostly Cloudy
1:58 PM 83.5 °F 91.6 °F 75.7 °F 77% 30.14 in 10.0 mi South 16.1 mph - N/A   Partly Cloudy
2:58 PM 83.3 °F 91.4 °F 75.7 °F 78% 30.12 in 10.0 mi South 15.0 mph - N/A   Clear
3:58 PM 83.7 °F 92.0 °F 75.7 °F 77% 30.11 in 10.0 mi South 18.4 mph - N/A   Clear
4:58 PM 82.0 °F 88.1 °F 74.3 °F 77% 30.10 in 10.0 mi South 15.0 mph 21.9 mph N/A   Clear
5:58 PM 80.8 °F 85.4 °F 73.0 °F 77% 30.09 in 10.0 mi SSE 16.1 mph - N/A   Clear
6:58 PM 79.3 °F - 72.0 °F 78% 30.09 in 10.0 mi SSE 13.8 mph - N/A   Clear
7:58 PM 74.5 °F - 72.0 °F 92% 30.09 in 10.0 mi SE 5.8 mph - N/A   Clear
8:58 PM 72.3 °F - 71.4 °F 97% 30.10 in 10.0 mi SE 4.6 mph - N/A   Clear
9:58 PM 70.5 °F - 70.2 °F 99% 30.10 in 10.0 mi East 3.5 mph - N/A   Clear
10:58 PM 69.1 °F - 69.1 °F 100% 30.09 in 10.0 mi East 3.5 mph - N/A   Clear
11:58 PM 68.0 °F - 68.0 °F 100% 30.08 in 10.0 mi Calm Calm - N/A   Clear